Probability
0 0 0 0 0 0 0 0 0 0 0 0 0 0 0 0 0 0 0 0 0 0 0 0 0 0 0 0 0 0 0 0 0 0 0 0 0 0 0 0 0 0 0
0 0 0 0 0 0 0 0 0 0 0 0 0 0 0 0 0 0 0 0 0 0 0 0 0 0 0 0 0 0 0 0 0 0 0 0 0 0 0 0 0 0 0
0 0 0 0 0 0 0 0 0 0 0 0 0 0 0 0 0 0 0 0 0 0 0 0 0 0 0 0 0 0 0 0 0 0 0 0 0 0 0 0 0 0 0
0 0 0 0 0 0 0 0 0 0 0 0 0 0 0 0 0 0 0 0 0 0 0 0 0 0 0 0 0 0 0 0 0 0 0 0 0 0 0 0 0 0 0
0 0 0 0 0 0 0 0 0 0 0 0 0 0 0 0 0 0 0 0 0 0 0 0 0 0 0 0 0 0 0 0 0 0 0 0 0 0 0 0 0 0 0
0 0 0 0 0 0 0 0 0 0 0 0 0 0 0 0 0 0 0 0 0 0 0 0 0 0 0 0 0 0 0 0 0 0 0 0 0 0 0 0 0 0 0
0 0 0 0 0 0 0 0 0 0 0 0 0 0 0 0 0 0 0 0 0 0 0 0 0 0 0 0 0 0 0 0 0 0 0 0 0 0 0 0 0 0 0
0 0 0 0 0 0 0 0 0 0 0 0 0 0 0 0 0 0 0 0 0 0 0 0 0 0 0 0 0 0 0 0 0 0 0 0 0 0 0 0 0 0 0
0 0 0 0 0 0 0 0 0 0 0 0 0 0 0 0 0 0 0 0 0 0 0 0 0 0 0 0 0 0 0 0 0 0 0 0 0 0 0 0 0 0 0
0 0 0 0 0 0 0 0 0 0 0 0 0 0 0 0 0 0 0 0 0 0 0 0 0 0 0 0 0 0 0 0 0 0 0 0 0 0 0 0 0 0 0
0 0 0 0 0 0 0 0 0 0 0 0 0 0 0 0 0 0 0 0 0 0 0 0 0 0 0 0 0 0 0 0 0 0 0 0 0 0 0 0 0 0 0
0 0 0 0 0 0 0 0 0 0 0 0 0 0 0 0 0 0 0 0 0 0 0 0 0 0 0 0 0 0 0 0 0 0 0 0 0 0 0 0 0 0 0
0 0 0 0 0 0 0 0 0 0 0 0 0 0 0 0 0 0 0 0 0 0 0 0 0 0 0 0 0 0 0 0 0 0 0 0 0 0 0 0 0 0 0
0 0 0 0 0 0 0 0 0 0 0 0 0 0 0 0 0 0 0 0 0 0 0 0 0 0 0 0 0 0 0 0 0 0 0 0 0 0 0 0 0 0 0
0 0 0 0 0 0 0 0 0 0 0 0 0 0 0 0 0 0 0 0 0 0 0 0 0 0 0 0 0 0 0 0 0 0 0 0 0 0 0 0 0 0 0
0 0 0 0 0 0 0 0 0 0 0 0 0 0 0 0 0 0 0 0 0 0 0 0 0 0 0 0 0 0 0 0 0 0 0 0 0 0 0 0 0 0 0
0 0 0 0 0 0 0 0 0 0 0 0 0 0 0 0 0 0 0 0 0 0 0 0 0 0 0 0 0 0 0 0 0 0 0 0 0 0 0 0 0 0 0
0 0 0 0 0 0 0 0 0 0 0 0 0 0 0 0 0 0 0 0 0 0 0 0 0 0 0 0 0 0 0 0 0 0 0 0 0 0 0 0 0 0 0
0 0 0 0 0 0 0 0 0 0 0 0 0 0 0 0 0 0 0 0 0 0 0 0 0 0 0 0 0 0 0 0 0 0 0 0 0 0 0 0 0 0 0
0 0 0 0 0 0 0 0 0 0 0 0 0 0 0 0 0 0 0 0 0 0 0 0 0 0 0 0 0 0 0 0 0 0 0 0 0 0 0 0 0 0 0
0 0 0 0 0 0 0 0 0 0 0 0 0 0 0 0 0 0 0 0 0 0 0 0 0 0 0 0 0 0 0 0 0 0 0 0 0 0 0 0 0 0 0
0 0 0 0 0 0 0 0 0 0 0 0 0 0 0 0 0 0 0 0 0 0 0 0 0 0 0 0 0 0 0 0 0 0 0 0 0 0 0 0 0 0 0
0 0 0 0 0 0 0 0 0 0 0 0 0 0 0 0 0 0 0 0 0 0 0 0 0 0 0 0 0 0 0 0 0 0 0 0 0 0 0 0 0 0 0
0 0 0 0 0 0 0 0 0 0 0 0 0 0 0 0 0 0 0 0 0 0 0 0 0 0 0 0 0 0 0 0 0 0 0 0 0 0 0 0 0 0 0
0 0 0 0 0 0 0 0 0 0 0 0 0 0 0 0 0 0 0 0 0 0 0 0 0 0 0 0 0 0 0 0 0 0 0 0 0 0 0 0 0 0 0
0 0 0 0 0 0 0 0 0 0 0 0 0 0 0 0 0 0 0 0 0 0 0 0 0 0 0 0 0 0 0 0 0 0 0 0 0 0 0 0 0 0 0
Height
5707 5702 5699 5696 5693 5692 5691 5690 5689 5689 5690 5691 5692 5694 5697 5699 5702 5705 5709 5712 5716 5719 5723 5727 5731 5734 5738 5742 5746 5750 5754 5758 5762 5765 5766 5769 5772 5775 5777 5779 5780 5781 5782
5688 5683 5679 5676 5672 5670 5669 5668 5668 5668 5668 5669 5671 5673 5676 5679 5682 5685 5689 5693 5698 5702 5706 5711 5716 5720 5724 5728 5733 5738 5742 5747 5752 5755 5757 5760 5763 5766 5769 5771 5773 5774 5775
5667 5662 5658 5654 5651 5649 5647 5645 5645 5646 5646 5647 5649 5651 5654 5657 5661 5664 5669 5673 5678 5683 5688 5694 5699 5704 5709 5714 5719 5724 5730 5735 5740 5745 5748 5751 5754 5757 5760 5762 5765 5766 5767
5646 5641 5637 5633 5629 5627 5625 5623 5623 5623 5624 5625 5627 5630 5633 5636 5640 5644 5648 5653 5658 5663 5669 5675 5681 5687 5693 5699 5705 5711 5716 5722 5728 5733 5738 5741 5745 5748 5751 5754 5756 5758 5760
5626 5620 5616 5612 5608 5606 5604 5603 5602 5602 5603 5605 5607 5610 5613 5617 5621 5624 5629 5633 5638 5644 5650 5656 5662 5669 5676 5682 5689 5696 5702 5709 5715 5721 5726 5731 5735 5738 5742 5745 5747 5750 5752
5606 5600 5596 5592 5588 5586 5584 5583 5583 5584 5585 5587 5590 5593 5596 5601 5604 5608 5611 5615 5620 5625 5630 5636 5643 5651 5658 5666 5673 5681 5688 5695 5702 5709 5715 5720 5725 5729 5732 5736 5739 5742 5744
5587 5581 5576 5572 5569 5567 5566 5566 5566 5567 5569 5572 5576 5579 5583 5586 5590 5593 5597 5600 5604 5608 5612 5618 5625 5633 5640 5648 5657 5665 5674 5681 5689 5697 5703 5709 5714 5719 5723 5727 5730 5733 5736
5569 5563 5558 5554 5552 5550 5549 5549 5550 5552 5555 5558 5562 5566 5570 5574 5577 5580 5584 5587 5590 5593 5597 5602 5607 5615 5623 5631 5640 5649 5659 5668 5676 5684 5692 5698 5703 5708 5713 5717 5721 5724 5727
5553 5547 5541 5538 5535 5534 5534 5534 5535 5538 5541 5545 5549 5553 5557 5561 5565 5569 5572 5575 5578 5581 5584 5588 5592 5599 5607 5615 5625 5635 5644 5653 5662 5671 5680 5687 5693 5698 5704 5708 5713 5716 5719
5540 5533 5528 5524 5521 5520 5520 5521 5522 5525 5528 5533 5537 5542 5546 5550 5554 5558 5561 5564 5567 5570 5573 5576 5580 5585 5591 5599 5609 5620 5630 5640 5649 5659 5668 5676 5683 5689 5694 5700 5704 5708 5711
5528 5522 5516 5512 5510 5508 5508 5509 5511 5514 5518 5522 5527 5531 5535 5540 5544 5548 5551 5554 5557 5560 5562 5566 5569 5573 5579 5587 5597 5607 5617 5627 5637 5647 5656 5665 5673 5679 5685 5691 5696 5700 5704
5520 5513 5508 5504 5501 5499 5499 5500 5502 5505 5508 5512 5517 5522 5526 5530 5535 5538 5542 5545 5547 5550 5552 5555 5558 5563 5569 5577 5585 5595 5604 5615 5626 5636 5646 5655 5663 5671 5677 5682 5688 5692 5696
5514 5508 5502 5498 5495 5493 5492 5493 5495 5498 5501 5505 5509 5514 5519 5523 5527 5530 5533 5536 5539 5541 5543 5546 5549 5553 5559 5567 5576 5585 5595 5605 5616 5626 5636 5646 5654 5661 5668 5674 5679 5684 5688
5511 5504 5498 5494 5491 5489 5488 5489 5490 5493 5496 5500 5504 5509 5513 5517 5520 5523 5526 5529 5532 5534 5536 5538 5541 5545 5551 5558 5567 5577 5587 5597 5607 5618 5627 5636 5645 5653 5660 5666 5672 5677 5681
5510 5502 5497 5492 5489 5487 5486 5486 5487 5490 5493 5497 5501 5505 5509 5512 5515 5518 5521 5524 5526 5528 5530 5532 5535 5540 5546 5552 5561 5570 5580 5590 5600 5610 5620 5628 5637 5645 5652 5659 5665 5670 5675
5510 5503 5497 5492 5489 5486 5485 5485 5487 5489 5492 5495 5499 5503 5506 5509 5512 5515 5518 5520 5522 5524 5526 5528 5531 5535 5541 5548 5556 5566 5575 5585 5594 5604 5613 5622 5630 5638 5646 5652 5658 5663 5668
5512 5505 5499 5494 5490 5487 5486 5486 5488 5490 5492 5495 5499 5502 5505 5508 5510 5513 5515 5518 5519 5521 5523 5525 5528 5532 5538 5545 5554 5563 5571 5581 5590 5599 5608 5616 5625 5633 5640 5646 5652 5657 5662
5516 5509 5502 5497 5493 5491 5489 5489 5490 5492 5494 5497 5500 5502 5505 5507 5510 5512 5514 5516 5518 5519 5521 5523 5527 5530 5536 5543 5552 5561 5569 5578 5587 5595 5604 5612 5620 5628 5635 5641 5647 5653 5658
5522 5514 5508 5503 5499 5496 5495 5494 5495 5496 5497 5499 5502 5504 5506 5509 5511 5512 5514 5516 5518 5520 5522 5524 5527 5532 5537 5544 5552 5561 5569 5577 5586 5594 5602 5609 5617 5624 5631 5637 5643 5648 5653
5529 5522 5515 5510 5505 5503 5501 5500 5500 5501 5502 5504 5505 5507 5509 5511 5513 5514 5516 5517 5519 5521 5524 5527 5531 5535 5540 5547 5555 5562 5570 5577 5586 5594 5601 5608 5615 5622 5628 5634 5640 5645 5649
5537 5530 5524 5518 5514 5511 5509 5508 5507 5507 5508 5509 5510 5511 5513 5514 5516 5517 5519 5521 5523 5525 5528 5532 5536 5540 5545 5551 5559 5566 5573 5580 5587 5595 5602 5608 5615 5621 5626 5632 5637 5642 5646
5546 5539 5533 5528 5524 5520 5517 5516 5515 5514 5514 5515 5516 5517 5518 5519 5520 5522 5524 5525 5528 5531 5534 5537 5541 5546 5551 5557 5564 5570 5577 5583 5590 5596 5603 5609 5615 5620 5625 5630 5635 5639 5643
5556 5549 5543 5538 5533 5530 5527 5525 5523 5523 5522 5522 5522 5523 5524 5525 5526 5528 5530 5532 5534 5537 5540 5543 5547 5552 5557 5563 5569 5575 5581 5587 5593 5599 5604 5610 5615 5620 5625 5629 5633 5638 5642
5565 5559 5553 5547 5543 5539 5536 5534 5532 5531 5530 5530 5530 5530 5531 5532 5533 5535 5537 5539 5542 5544 5547 5550 5554 5558 5563 5568 5574 5579 5585 5590 5596 5601 5606 5611 5616 5620 5625 5628 5632 5636 5639
5574 5568 5563 5558 5553 5549 5546 5544 5542 5540 5539 5539 5538 5538 5539 5540 5541 5543 5544 5546 5549 5551 5554 5558 5561 5566 5570 5575 5581 5586 5590 5595 5600 5605 5609 5613 5617 5621 5625 5628 5632 5635 5637
5582 5577 5572 5567 5563 5560 5557 5554 5552 5550 5549 5548 5548 5548 5548 5549 5550 5551 5552 5554 5557 5559 5562 5566 5569 5573 5578 5582 5587 5591 5596 5600 5604 5608 5611 5615 5618 5622 5625 5627 5630 5632 5634
Wind_Speed
55 56 56 57 57 57 57 57 57 58 58 59 59 59 59 58 58 57 56 55 54 53 51 50 48 47 45 44 42 40 38 36 34 34 34 32 30 29 27 27 26 24 24
58 58 58 59 59 58 58 58 58 58 59 59 60 60 60 61 61 61 60 59 58 57 56 54 52 51 49 48 46 43 41 39 37 35 35 35 33 31 29 28 27 26 26
60 59 59 58 58 58 58 57 57 57 57 58 59 60 60 61 61 62 62 62 61 60 59 58 56 54 53 51 49 47 45 42 40 38 37 36 34 32 31 30 29 27 26
60 59 59 58 57 56 55 54 54 54 53 53 54 55 56 57 58 59 60 61 61 62 61 60 59 57 55 54 52 50 47 45 42 40 38 37 36 34 32 31 30 29 27
60 58 57 56 55 53 52 50 49 49 48 48 48 49 49 50 51 53 56 57 59 60 61 61 60 59 58 56 54 52 50 47 45 42 40 38 36 35 33 32 31 29 28
57 56 54 53 52 50 48 46 44 43 43 43 41 42 42 42 44 45 47 50 53 55 58 60 61 60 59 58 56 54 51 49 46 44 42 39 37 36 35 33 31 30 29
54 53 52 50 48 46 44 43 41 40 39 39 37 37 37 37 38 39 40 42 45 48 52 55 58 59 59 59 58 56 53 50 48 45 42 40 38 37 36 34 31 30 29
51 50 48 46 44 42 41 39 38 38 38 38 37 37 35 35 35 34 35 36 37 40 43 47 52 56 58 58 57 56 54 51 49 47 44 41 39 38 36 34 32 30 30
47 45 43 42 41 39 38 37 36 36 36 36 36 36 35 34 34 32 32 32 32 33 35 39 44 49 53 56 56 55 54 52 50 48 45 42 40 38 36 34 32 30 30
43 40 38 36 35 34 34 34 34 34 34 34 34 34 34 33 32 31 31 30 30 31 32 34 37 41 46 50 52 53 53 52 51 49 46 44 41 39 37 34 32 30 29
39 35 33 31 30 30 30 29 29 29 30 31 31 32 31 30 30 30 30 29 30 30 31 32 34 37 41 45 47 48 50 51 50 49 47 44 42 39 37 34 32 31 30
35 31 28 26 24 24 23 23 23 25 26 27 27 28 27 27 27 28 28 28 28 28 29 30 32 34 38 41 42 45 47 49 48 48 47 44 42 40 37 35 34 32 30
32 29 26 23 21 18 17 17 18 19 20 21 23 23 23 23 23 24 25 25 25 25 26 27 29 31 35 38 40 42 44 45 46 46 45 44 43 40 38 35 33 32 30
32 28 24 21 18 15 13 12 13 14 16 17 19 20 20 20 21 21 21 22 22 22 22 23 25 28 33 36 38 41 42 43 44 44 44 43 42 40 38 35 33 32 30
32 27 23 19 15 12 10 8 7 8 11 13 15 16 17 17 17 17 18 18 18 18 19 19 22 25 31 33 34 37 39 41 41 42 42 41 40 40 38 35 33 31 30
31 27 22 18 15 12 7 5 4 5 8 11 12 13 13 14 14 14 15 16 15 14 15 16 19 24 28 31 32 34 36 38 39 39 40 39 39 38 37 34 32 32 30
32 27 23 19 15 11 7 3 0 3 6 8 10 10 11 11 11 11 11 11 11 11 12 13 18 23 26 29 31 32 33 35 36 37 39 38 38 37 35 34 32 31 29
33 28 24 21 17 13 9 7 5 5 5 6 7 8 8 8 8 7 7 8 8 9 10 11 15 21 24 28 31 31 31 33 34 35 36 35 35 35 34 32 31 30 28
34 30 26 23 20 16 13 10 9 7 6 6 7 7 7 7 6 5 5 6 6 7 10 13 15 20 24 28 31 31 30 31 32 33 33 33 32 32 32 30 29 28 27
35 32 29 26 22 19 16 14 12 11 10 10 9 8 8 7 6 5 5 6 7 10 12 14 16 18 22 28 30 29 29 29 31 31 30 29 30 30 29 28 27 26 25
35 33 30 28 24 21 19 18 16 15 13 12 11 10 10 8 8 8 8 9 12 14 15 16 18 19 22 26 27 26 27 28 29 29 29 28 28 27 27 26 25 25 24
35 33 30 28 27 25 23 21 19 17 16 16 15 14 12 12 11 11 12 14 15 16 17 18 18 20 23 26 26 26 25 25 26 25 24 24 24 24 23 23 23 22 21
35 33 31 29 27 26 24 22 21 20 19 17 16 15 15 15 15 16 16 16 17 17 18 18 19 21 23 24 25 25 24 24 23 23 23 22 22 21 21 21 20 20 20
34 33 31 30 28 26 24 23 21 20 19 18 18 18 18 18 18 18 19 19 19 19 20 21 21 22 22 24 24 24 23 22 22 21 20 20 20 20 19 19 18 18 18
31 31 31 30 28 27 26 24 23 23 22 21 21 21 21 20 20 20 20 19 19 19 21 22 23 23 24 24 23 22 21 20 19 18 17 17 17 17 16 16 15 16 16
28 29 29 29 28 27 26 25 24 24 24 23 23 22 22 22 21 21 20 20 20 21 21 22 22 22 22 21 20 18 18 17 16 16 15 14 13 13 13 13 14 15 16
Wind_Direction
289 287 285 283 281 279 277 275 272 270 268 265 263 260 259 257 256 255 253 252 251 250 250 248 248 248 248 247 246 245 244 243 243 244 248 250 251 251 252 253 256 259 261
291 289 287 285 283 281 279 276 273 271 268 266 263 260 259 257 255 254 253 251 250 249 248 247 246 246 246 246 245 244 244 243 242 240 244 248 250 250 251 252 254 257 260
294 291 289 286 284 282 280 277 274 271 268 266 263 261 258 257 255 254 252 251 250 248 247 246 245 245 245 244 244 243 243 242 241 240 241 244 247 249 249 251 253 255 258
295 293 291 288 286 284 282 279 276 272 268 265 262 259 257 256 254 253 252 250 249 248 247 245 244 243 243 243 242 241 241 241 240 239 239 241 243 246 247 249 252 253 255
297 295 292 289 287 285 282 279 275 272 269 265 262 259 256 254 253 252 251 250 248 247 246 244 243 242 241 241 240 239 239 239 239 238 237 238 241 243 245 247 250 251 252
298 296 293 290 287 284 281 278 274 269 265 262 260 257 254 253 252 252 251 250 249 247 246 244 242 241 239 239 238 237 237 237 237 236 236 236 238 241 243 245 248 248 249
300 297 294 290 286 282 279 275 271 267 262 258 255 253 252 252 252 251 251 250 249 248 247 244 241 239 238 237 236 235 234 234 234 234 234 234 236 238 241 243 244 246 246
303 300 295 290 285 282 278 273 268 263 258 255 253 252 251 251 251 251 251 251 251 249 248 245 242 238 236 235 234 233 232 232 231 231 232 232 233 235 238 240 241 244 245
306 302 297 291 287 281 277 272 267 260 257 254 251 250 250 250 250 250 250 250 250 249 248 247 243 239 235 233 232 231 230 229 229 228 229 230 231 232 234 237 239 241 244
310 306 301 295 288 282 277 271 265 258 254 251 250 249 248 247 247 248 248 249 250 249 248 247 243 238 233 230 229 228 227 226 226 225 225 227 228 229 232 234 235 238 240
317 312 306 300 291 283 277 271 263 256 252 249 248 247 245 245 245 246 247 249 249 249 248 247 244 237 232 227 225 225 224 223 223 222 222 223 225 227 229 231 232 236 238
324 320 315 308 301 290 279 270 263 255 250 247 244 241 241 241 243 244 245 247 248 250 250 247 244 237 230 224 223 221 220 219 219 219 219 220 222 225 227 228 230 234 237
334 329 323 318 311 300 286 273 263 255 246 241 237 235 236 238 241 243 244 245 247 249 250 247 242 235 224 219 218 217 217 216 216 215 216 218 220 222 224 225 227 231 234
342 337 333 328 321 310 297 281 266 251 239 234 230 230 232 236 240 242 242 243 245 247 249 243 237 228 217 213 213 213 212 211 212 212 213 215 217 219 221 223 225 227 230
351 348 344 340 335 325 309 291 266 243 228 222 221 224 229 232 236 238 240 241 244 246 245 238 227 218 211 207 206 206 207 207 207 208 210 212 213 215 218 220 222 224 225
359 358 357 354 350 344 330 301 258 227 215 212 212 216 223 228 233 236 238 240 243 245 240 228 219 212 206 201 201 201 203 203 203 205 207 208 209 211 214 216 218 220 220
7 9 10 8 7 7 10 13 130 186 189 193 200 209 216 223 227 231 233 232 236 236 229 218 210 202 198 195 193 194 197 199 199 202 203 204 205 207 210 212 215 216 216
13 15 17 20 22 28 37 55 88 129 152 169 185 195 202 207 211 219 224 220 218 216 213 206 196 191 190 186 188 189 189 192 194 195 197 199 202 205 207 209 210 211 213
19 22 25 28 33 42 52 64 79 97 115 132 145 155 163 170 177 183 183 187 188 182 176 175 173 174 175 175 177 178 180 183 185 189 192 195 198 201 202 204 206 208 210
24 28 31 35 41 49 57 66 76 86 97 106 115 123 132 137 135 133 137 146 147 148 152 156 156 158 164 168 171 175 175 176 179 183 185 189 193 196 197 199 203 206 209
28 31 36 41 47 54 61 68 75 81 89 97 103 110 114 116 116 115 116 126 134 137 140 145 147 150 155 162 166 168 170 173 176 178 180 184 188 191 194 198 203 205 207
31 36 41 46 51 56 62 68 75 81 88 94 97 99 101 106 110 113 117 122 128 131 136 140 143 146 151 154 159 162 166 170 173 175 178 183 187 189 193 198 200 201 203
33 37 42 47 52 57 63 68 73 79 84 88 90 94 100 105 107 110 115 119 123 127 129 130 137 142 149 155 158 161 165 168 172 175 178 181 185 188 191 193 195 199 205
34 37 41 46 52 58 63 66 71 77 81 83 87 94 100 103 105 106 110 114 116 120 124 126 131 138 145 148 149 152 155 157 160 164 171 176 181 184 188 192 198 204 211
36 39 43 47 52 57 61 65 71 76 80 83 87 91 94 99 101 101 104 109 114 117 122 124 127 132 137 141 144 147 150 153 156 161 166 170 176 181 188 196 205 214 221
37 41 44 48 51 56 60 65 70 74 78 83 87 89 93 96 98 99 101 106 111 116 120 124 126 131 135 139 144 150 156 160 163 167 170 177 185 194 203 212 220 228 235